Terminal Aerodrome Forecast
Issued by NWS

Home | Current Version | Previous Version | Text Only | Print | Product List | Glossary On
Versions: 1 2 3 4 5 6 7 8 9 10 11 12 13 14 15 16 17 18 19 20 21 22 23 24 25 26 27 28
000
FTUS44 KOUN 241739
TAFPNC
TAF
KPNC 241739Z 2418/2518 15010KT P6SM SKC
     FM242000 16012KT P6SM SCT050
     FM250100 15008KT P6SM SKC
     FM251300 17010KT P6SM FEW200=

USA.gov is the U.S. government's official web portal to all federal, state and local government web resources and services.